When you browse on this site, cookies collect data to enhance your experience and personalize the content and advertising you see.
Visit our Privacy Policy to learn more. By continuing to use the site, you agree to this use of cookies and data.
  • In Hungary
  • List of Countries
  • For 7 days
  • Water Temperature
  • Satellite Maps
  • Weather Map
  • News
  • Weather Widgets
  • user-avatar
    Login

    Hourly Weather Vitvyste

    Today, 18 July, Thursday

    Time Temperature Precipitation Wind Pressure Humidity
    00:00 +22°C° 0 mm 1 mps 754 mmHg 60%
    01:00 +22°C° 0 mm 1 mps 754 mmHg 59%
    02:00 +20°C° 0 mm 2 mps 754 mmHg 59%
    03:00 +21°C° 0 mm 2 mps 754 mmHg 59%
    04:00 +21°C° 0 mm 2 mps 755 mmHg 59%
    05:00 +21°C° 0 mm 2 mps 755 mmHg 58%
    06:00 +24°C° 0 mm 2 mps 755 mmHg 52%
    07:00 +26°C° 0 mm 2 mps 755 mmHg 46%
    08:00 +28°C° 0 mm 3 mps 755 mmHg 40%
    09:00 +29°C° 0 mm 3 mps 755 mmHg 37%
    10:00 +30°C° 0 mm 3 mps 756 mmHg 34%
    11:00 +30°C° 0 mm 3 mps 756 mmHg 32%
    12:00 +31°C° 0 mm 3 mps 756 mmHg 31%
    13:00 +31°C° 0 mm 3 mps 756 mmHg 31%
    14:00 +31°C° 0 mm 3 mps 756 mmHg 30%
    15:00 +30°C° 0 mm 3 mps 756 mmHg 31%
    16:00 +30°C° 0 mm 4 mps 756 mmHg 33%
    17:00 +30°C° 0 mm 4 mps 757 mmHg 34%
    18:00 +28°C° 0 mm 4 mps 757 mmHg 39%
    19:00 +27°C° 0 mm 4 mps 757 mmHg 45%
    20:00 +25°C° 0 mm 3 mps 757 mmHg 50%
    21:00 +24°C° 0 mm 3 mps 758 mmHg 51%
    22:00 +24°C° 0 mm 3 mps 758 mmHg 51%
    23:00 +22°C° 0 mm 3 mps 758 mmHg 51%

    Tomorrow, 19 July, Friday

    Time Temperature Precipitation Wind Pressure Humidity
    00:00 +22°C° 0 mm 4 mps 759 mmHg 54%
    01:00 +22°C° 0 mm 4 mps 759 mmHg 57%
    02:00 +21°C° 0 mm 4 mps 759 mmHg 59%
    03:00 +21°C° 0 mm 3 mps 759 mmHg 61%
    04:00 +21°C° 0 mm 3 mps 759 mmHg 63%
    05:00 +20°C° 0 mm 3 mps 760 mmHg 66%
    06:00 +23°C° 0 mm 2 mps 760 mmHg 58%
    07:00 +25°C° 0 mm 2 mps 760 mmHg 50%
    08:00 +27°C° 0 mm 2 mps 761 mmHg 43%
    09:00 +28°C° 0 mm 2 mps 761 mmHg 39%
    10:00 +28°C° 0 mm 2 mps 761 mmHg 36%
    11:00 +29°C° 0 mm 3 mps 761 mmHg 33%
    12:00 +30°C° 0 mm 3 mps 761 mmHg 31%
    13:00 +30°C° 0 mm 3 mps 761 mmHg 30%
    14:00 +31°C° 0 mm 3 mps 761 mmHg 28%
    15:00 +31°C° 0 mm 3 mps 761 mmHg 29%
    16:00 +30°C° 0 mm 3 mps 761 mmHg 29%
    17:00 +30°C° 0 mm 3 mps 761 mmHg 30%
    18:00 +28°C° 0 mm 3 mps 761 mmHg 37%
    19:00 +26°C° 0 mm 2 mps 761 mmHg 44%
    20:00 +24°C° 0 mm 2 mps 761 mmHg 51%
    21:00 +23°C° 0 mm 2 mps 762 mmHg 54%
    22:00 +23°C° 0 mm 2 mps 762 mmHg 58%
    23:00 +21°C° 0 mm 2 mps 762 mmHg 62%

    Day after tomorrow, 20 July, Saturday

    Time Temperature Precipitation Wind Pressure Humidity
    00:00 +21°C° 0 mm 2 mps 762 mmHg 63%
    01:00 +21°C° 0 mm 1 mps 762 mmHg 65%
    02:00 +21°C° 0 mm 1 mps 762 mmHg 67%
    03:00 +21°C° 0 mm 1 mps 762 mmHg 66%
    04:00 +21°C° 0 mm 1 mps 762 mmHg 66%
    05:00 +21°C° 0 mm 1 mps 762 mmHg 65%
    06:00 +24°C° 0 mm 2 mps 763 mmHg 58%
    07:00 +26°C° 0 mm 2 mps 763 mmHg 51%
    08:00 +28°C° 0 mm 2 mps 763 mmHg 44%
    09:00 +29°C° 0 mm 3 mps 763 mmHg 41%
    10:00 +30°C° 0 mm 4 mps 763 mmHg 38%
    11:00 +32°C° 0 mm 4 mps 764 mmHg 35%
    12:00 +32°C° 0 mm 5 mps 763 mmHg 34%
    13:00 +32°C° 0 mm 5 mps 763 mmHg 34%
    14:00 +33°C° 0 mm 5 mps 763 mmHg 33%
    15:00 +32°C° 0 mm 5 mps 763 mmHg 33%
    16:00 +32°C° 0 mm 4 mps 763 mmHg 33%
    17:00 +32°C° 0 mm 4 mps 763 mmHg 33%
    18:00 +29°C° 0 mm 3 mps 763 mmHg 38%
    19:00 +27°C° 0 mm 3 mps 763 mmHg 43%
    20:00 +25°C° 0 mm 2 mps 763 mmHg 48%
    21:00 +24°C° 0 mm 2 mps 763 mmHg 49%
    22:00 +24°C° 0 mm 1 mps 763 mmHg 51%
    23:00 +23°C° 0 mm 1 mps 763 mmHg 53%

    21 July, Sunday

    Time Temperature Precipitation Wind Pressure Humidity
    00:00 +23°C° 0 mm 1 mps 763 mmHg 53%
    01:00 +23°C° 0 mm 2 mps 763 mmHg 53%
    02:00 +21°C° 0 mm 2 mps 763 mmHg 54%
    03:00 +21°C° 0 mm 2 mps 763 mmHg 56%
    04:00 +21°C° 0 mm 2 mps 763 mmHg 57%
    05:00 +23°C° 0 mm 2 mps 763 mmHg 59%
    06:00 +25°C° 0 mm 2 mps 763 mmHg 52%
    07:00 +27°C° 0 mm 2 mps 763 mmHg 46%
    08:00 +29°C° 0 mm 3 mps 763 mmHg 39%
    09:00 +30°C° 0 mm 3 mps 763 mmHg 36%
    10:00 +32°C° 0 mm 4 mps 763 mmHg 32%
    11:00 +33°C° 0 mm 4 mps 763 mmHg 29%
    12:00 +33°C° 0 mm 4 mps 762 mmHg 28%
    13:00 +34°C° 0 mm 4 mps 762 mmHg 27%
    14:00 +34°C° 0 mm 4 mps 762 mmHg 26%
    15:00 +34°C° 0 mm 4 mps 762 mmHg 27%
    16:00 +33°C° 0 mm 4 mps 762 mmHg 28%
    17:00 +33°C° 0 mm 4 mps 762 mmHg 29%
    18:00 +30°C° 0 mm 3 mps 762 mmHg 34%
    19:00 +28°C° 0 mm 2 mps 762 mmHg 40%
    20:00 +24°C° 0 mm 0 mps 762 mmHg 45%
    21:00 +25°C° 0 mm 1 mps 762 mmHg 45%
    22:00 +25°C° 0 mm 1 mps 762 mmHg 46%
    23:00 +25°C° 0 mm 1 mps 762 mmHg 47%

    22 July, Monday

    Time Temperature Precipitation Wind Pressure Humidity
    00:00 +24°C° 0 mm 1 mps 762 mmHg 48%
    01:00 +24°C° 0 mm 2 mps 762 mmHg 49%
    02:00 +24°C° 0 mm 2 mps 762 mmHg 50%
    03:00 +24°C° 0 mm 2 mps 762 mmHg 52%
    04:00 +24°C° 0 mm 1 mps 762 mmHg 54%
    05:00 +24°C° 0 mm 1 mps 761 mmHg 55%
    06:00 +26°C° 0 mm 1 mps 761 mmHg 48%
    07:00 +28°C° 0 mm 1 mps 761 mmHg 42%
    08:00 +31°C° 0 mm 1 mps 761 mmHg 35%
    09:00 +32°C° 0 mm 2 mps 761 mmHg 32%
    10:00 +34°C° 0 mm 2 mps 761 mmHg 30%
    11:00 +35°C° 0 mm 3 mps 761 mmHg 28%
    12:00 +35°C° 0 mm 3 mps 761 mmHg 28%
    13:00 +35°C° 0 mm 4 mps 761 mmHg 28%
    14:00 +35°C° 0 mm 4 mps 761 mmHg 28%
    15:00 +35°C° 0 mm 4 mps 760 mmHg 29%
    16:00 +35°C° 0 mm 4 mps 760 mmHg 30%
    17:00 +34°C° 0 mm 4 mps 760 mmHg 31%
    18:00 +31°C° 0 mm 3 mps 760 mmHg 36%
    19:00 +29°C° 0 mm 2 mps 760 mmHg 41%
    20:00 +27°C° 0 mm 2 mps 760 mmHg 47%
    21:00 +27°C° 0 mm 2 mps 759 mmHg 49%
    22:00 +26°C° 0 mm 3 mps 759 mmHg 51%
    23:00 +25°C° 0 mm 3 mps 759 mmHg 54%

    23 July, Tuesday

    Time Temperature Precipitation Wind Pressure Humidity
    00:00 +25°C° 0 mm 4 mps 759 mmHg 59%
    01:00 +25°C° 0 mm 4 mps 759 mmHg 65%
    02:00 +23°C° 0 mm 4 mps 758 mmHg 71%
    03:00 +24°C° 0 mm 3 mps 758 mmHg 73%
    04:00 +24°C° 0 mm 3 mps 758 mmHg 75%
    05:00 +23°C° 0 mm 2 mps 757 mmHg 78%
    06:00 +25°C° 0 mm 3 mps 757 mmHg 69%
    07:00 +27°C° 0 mm 3 mps 757 mmHg 60%
    08:00 +29°C° 0 mm 4 mps 757 mmHg 51%
    09:00 +30°C° 0 mm 4 mps 757 mmHg 48%
    10:00 +32°C° 0 mm 5 mps 757 mmHg 45%
    11:00 +33°C° 0 mm 5 mps 757 mmHg 42%
    12:00 +32°C° 0.8 mm 4 mps 757 mmHg 47%
    13:00 +30°C° 0.8 mm 4 mps 757 mmHg 52%
    14:00 +29°C° 0.8 mm 3 mps 756 mmHg 57%
    15:00 +29°C° 0.5 mm 3 mps 756 mmHg 57%
    16:00 +29°C° 0.5 mm 3 mps 756 mmHg 56%
    17:00 +29°C° 0.5 mm 3 mps 756 mmHg 56%
    18:00 +28°C° 0.1 mm 3 mps 756 mmHg 59%
    19:00 +27°C° 0.1 mm 3 mps 756 mmHg 62%
    20:00 +26°C° 0.1 mm 2 mps 756 mmHg 65%
    21:00 +25°C° 0 mm 3 mps 756 mmHg 66%
    22:00 +24°C° 0 mm 3 mps 756 mmHg 67%
    23:00 +24°C° 0 mm 3 mps 756 mmHg 67%
    Show more